EW5542 Weather Reports


Display with metric or nautical units.
time (UTC)temp
F
wind
direction
speed
MPH
gust
MPH
rain 1hr
in
rain 24hr
in
rain mn
in
humidity
%
barometer
mb
20260905234539 93 333 0.0 3.0 0.00 0.00 0.00 54 1010.0
20260905233032 95 313 0.0 3.0 0.00 0.00 0.00 52 1010.1
20260905231531 95 9 0.0 0.0 0.00 0.00 0.00 48 1009.9
20260905230030 97 328 0.0 6.0 0.00 0.00 0.00 47 1009.7
20260905224535 97 344 0.0 2.0 0.00 0.00 0.00 47 1009.7
20260905223034 96 321 0.0 6.0 0.00 0.00 0.00 49 1009.9
20260905221529 95 312 0.0 8.0 0.00 0.00 0.00 51 1009.9
20260905220029 96 306 2.0 9.0 0.00 0.00 0.00 51 1009.8
20260905214528 96 360 3.0 8.0 0.00 0.00 0.00 49 1009.6
20260905213029 96 339 0.0 5.0 0.00 0.00 0.00 50 1009.8
20260905211527 96 323 0.0 7.0 0.00 0.00 0.00 48 1009.8
20260905210024 98 15 2.0 13.0 0.00 0.00 0.00 44 1009.9
20260905204523 99 336 0.0 10.0 0.00 0.00 0.00 42 1010.0
20260905203022 100 313 8.0 13.0 0.00 0.00 0.00 39 1010.1
20260905201522 99 312 2.0 10.0 0.00 0.00 0.00 45 1010.2
20260905200019 100 265 1.0 9.0 0.00 0.00 0.00 41 1010.3
20260905194514 99 292 1.0 10.0 0.00 0.00 0.00 42 1010.5
20260905193012 99 329 0.0 7.0 0.00 0.00 0.00 42 1010.6
20260905191512 99 5 0.0 8.0 0.00 0.00 0.00 45 1010.9
20260905190021 98 190 0.0 10.0 0.00 0.00 0.00 45 1011.0
20260905184503 98 5 0.0 8.0 0.00 0.00 0.00 46 1011.2
20260905181559 98 217 0.0 5.0 0.00 0.00 0.00 48 1011.5
20260905180051 97 280 0.0 4.0 0.00 0.00 0.00 49 1011.7
20260905174547 96 149 0.0 4.0 0.00 0.00 0.00 52 1011.8
20260905173043 95 268 0.0 5.0 0.00 0.00 0.00 52 1012.0
20260905171541 95 225 0.0 5.0 0.00 0.00 0.00 54 1012.0
20260905170041 94 231 0.0 5.0 0.00 0.00 0.00 56 1012.2
20260905164538 93 182 0.0 6.0 0.00 0.00 0.00 57 1012.6
20260905163033 92 221 0.0 5.0 0.00 0.00 0.00 58 1012.6
20260905160028 91 193 0.0 4.0 0.00 0.00 0.00 60 1012.8
20260905154525 90 173 0.0 4.0 0.00 0.00 0.00 61 1012.9
20260905153029 89 237 0.0 6.0 0.00 0.00 0.00 64 1013.0
20260905151518 87 195 0.0 5.0 0.00 0.00 0.00 66 1012.9
20260905150019 87 234 0.0 4.0 0.00 0.00 0.00 67 1012.9
20260905144513 87 229 3.0 6.0 0.00 0.00 0.00 67 1012.8
20260905143020 86 228 0.0 6.0 0.00 0.00 0.00 69 1012.7
20260905141509 85 200 0.0 3.0 0.00 0.00 0.00 74 1012.9
20260905140003 83 196 0.0 4.0 0.00 0.00 0.00 76 1012.9
20260905134559 82 191 0.0 0.0 0.00 0.00 0.00 78 1013.0
20260905133106 81 188 0.0 5.0 0.00 0.00 0.00 79 1013.0
20260905131608 80 117 0.0 3.0 0.00 0.00 0.00 81 1012.8
20260905130055 79 118 0.0 4.0 0.00 0.00 0.00 83 1012.9
20260905124554 78 137 0.0 0.0 0.00 0.00 0.00 84 1012.7
20260905123054 76 141 0.0 0.0 0.00 0.00 0.00 86 1012.6
20260905121553 76 146 0.0 0.0 0.00 0.00 0.00 87 1012.5
20260905120050 76 146 0.0 0.0 0.00 0.00 0.00 87 1012.3
20260905114551 76 146 0.0 0.0 0.00 0.00 0.00 87 1012.2
20260905113051 76 146 0.0 0.0 0.00 0.00 0.00 87 1012.3
20260905111606 76 146 0.0 0.0 0.00 0.00 0.00 86 1012.2
20260905110054 76 146 0.0 0.0 0.00 0.00 0.00 86 1012.2
20260905104546 76 146 0.0 0.0 0.00 0.00 0.00 86 1012.0
20260905103045 77 146 0.0 0.0 0.00 0.00 0.00 86 1011.9
20260905101549 77 146 0.0 0.0 0.00 0.00 0.00 86 1012.0
20260905100046 77 146 0.0 0.0 0.00 0.00 0.00 86 1012.0
20260905094543 77 146 0.0 0.0 0.00 0.00 0.00 86 1011.9
20260905093043 77 146 0.0 0.0 0.00 0.00 0.00 85 1011.8
20260905091542 77 146 0.0 0.0 0.00 0.00 0.00 85 1011.8
20260905090039 78 146 0.0 0.0 0.00 0.00 0.00 85 1011.9
20260905084537 78 146 0.0 0.0 0.00 0.00 0.00 84 1011.9
20260905083036 78 146 0.0 0.0 0.00 0.00 0.00 84 1011.9
20260905081534 79 146 0.0 0.0 0.00 0.00 0.00 82 1011.9
20260905080033 79 146 0.0 0.0 0.00 0.00 0.00 81 1012.1
20260905074532 79 146 0.0 0.0 0.00 0.00 0.00 82 1012.1
20260905073041 79 146 0.0 0.0 0.00 0.00 0.00 82 1012.1
20260905071540 79 146 0.0 0.0 0.00 0.00 0.00 83 1012.3
20260905070029 79 146 0.0 0.0 0.00 0.00 0.00 83 1012.3
20260905064528 80 146 0.0 0.0 0.00 0.00 0.00 81 1012.2
20260905063027 80 146 0.0 0.0 0.00 0.00 0.00 82 1012.3
20260905061529 79 146 0.0 0.0 0.00 0.00 0.00 83 1012.4
20260905060026 80 146 0.0 0.0 0.00 0.00 0.00 83 1012.5
20260905054538 80 146 0.0 0.0 0.00 0.00 0.00 82 1012.5
20260905053021 80 146 0.0 0.0 0.00 0.00 0.00 82 1012.6
20260905051519 81 146 0.0 0.0 0.00 0.00 0.00 81 1012.4
20260905050016 82 146 0.0 0.0 0.00 0.00 0.00 80 1012.3
20260905044514 83 146 0.0 0.0 0.00 0.00 0.00 78 1012.4
20260905043012 84 146 0.0 0.0 0.00 0.00 0.00 77 1012.3
20260905041512 84 140 0.0 0.0 0.00 0.00 0.00 74 1012.2
20260905040017 84 140 0.0 0.0 0.00 0.00 0.00 73 1012.3
20260905034511 84 142 0.0 0.0 0.00 0.00 0.00 74 1012.4
20260905033010 85 131 0.0 0.0 0.00 0.00 0.00 72 1012.4
20260905031510 84 131 0.0 0.0 0.00 0.00 0.00 72 1012.5
20260905030009 84 132 0.0 2.0 0.00 0.00 0.00 74 1012.6
20260905024512 83 136 0.0 0.0 0.00 0.00 0.00 76 1012.5
20260905023017 84 169 0.0 0.0 0.00 0.00 0.00 76 1012.4
20260905021507 85 169 0.0 0.0 0.00 0.00 0.00 77 1012.1
20260905020007 86 169 0.0 0.0 0.00 0.00 0.00 74 1012.0
20260905014507 86 169 0.0 0.0 0.00 0.00 0.00 73 1011.8
20260905013007 86 169 0.0 0.0 0.00 0.00 0.00 71 1011.6
20260905011508 87 169 0.0 0.0 0.00 0.00 0.00 70 1011.4
20260905010008 88 169 0.0 0.0 0.00 0.00 0.00 69 1011.4
20260905004507 90 169 0.0 0.0 0.00 0.00 0.00 67 1011.4
20260905003005 92 169 0.0 0.0 0.00 0.00 0.00 62 1011.4
20260905001503 94 169 0.0 0.0 0.00 0.00 0.00 56 1011.3
20260905000002 95 169 0.0 0.0 0.00 0.00 0.00 53 1011.2